Temperature
18 18 18 18 18 18 18 18 17 17 17 18 18 18 18 18 18 18 18 18 18 18 17 17 17 17 17 17 17 17 16 16 16 16 16 16 16 16 16 16 16 16 16
18 18 18 18 18 18 18 18 18 18 18 18 18 18 18 18 18 17 18 18 18 17 17 17 17 17 17 17 17 17 17 16 16 16 16 16 16 16 16 16 16 16 16
18 18 18 18 18 18 18 18 18 18 18 18 18 18 17 17 17 17 17 17 17 17 17 17 17 17 17 17 17 17 17 16 16 16 16 16 16 16 16 16 16 16 16
18 18 18 18 18 18 18 18 18 18 18 18 18 18 18 17 17 17 17 17 17 17 17 17 17 17 17 17 17 17 17 17 16 16 16 16 16 16 16 16 16 16 16
18 18 18 18 18 18 18 18 18 18 18 18 18 18 18 18 17 17 17 17 17 17 17 17 17 17 17 17 17 17 17 17 17 16 16 16 16 16 16 16 16 16 16
18 18 18 18 18 18 18 18 18 18 18 18 18 18 18 18 18 17 17 17 17 17 17 17 17 17 17 17 17 17 17 17 17 16 16 16 16 16 16 16 16 16 16
18 18 18 18 18 18 18 18 18 18 18 18 18 18 18 18 18 18 18 17 17 17 17 17 17 17 17 17 17 17 17 17 16 16 16 16 16 16 16 16 16 15 15
18 18 18 18 18 18 18 18 18 18 18 18 18 18 18 18 18 18 18 18 18 17 17 17 17 17 17 17 17 17 17 17 16 16 16 16 16 16 15 15 15 15 15
18 18 18 18 18 18 18 18 18 18 18 18 18 18 18 18 18 18 18 18 18 18 17 17 17 17 17 17 17 17 17 17 16 16 16 16 16 16 15 15 15 15 15
18 18 18 18 18 18 18 18 18 18 18 18 18 18 18 18 18 18 18 18 18 18 18 18 17 17 17 17 17 17 17 16 16 16 16 16 16 16 15 15 15 15 15
18 18 18 18 18 18 18 18 18 18 18 18 18 18 18 18 18 18 18 18 18 18 18 18 18 17 17 17 17 17 17 16 16 16 16 16 16 15 15 15 15 15 15
18 18 18 18 18 18 18 18 17 17 17 17 18 18 18 18 18 18 18 18 18 18 18 18 18 17 17 17 17 17 17 16 16 16 16 16 16 15 15 15 15 15 15
18 18 17 17 18 18 17 17 17 17 17 17 17 17 18 18 18 18 18 18 18 18 18 18 18 17 17 17 17 17 17 16 16 16 16 16 16 15 15 15 15 15 15
18 18 17 17 17 17 17 17 17 17 17 17 17 17 17 18 18 18 18 18 18 18 18 18 17 17 17 17 17 17 16 16 16 16 16 16 16 15 15 15 15 15 15
18 18 18 17 17 17 17 17 17 17 17 17 17 17 17 17 17 17 18 18 18 18 17 17 17 17 16 16 16 16 16 16 16 16 16 15 15 15 15 15 15 15 14
17 17 17 17 17 17 17 17 17 17 17 16 16 16 17 17 17 17 17 17 17 17 17 17 17 16 16 16 16 16 15 15 15 15 15 15 15 15 15 15 14 14 14
17 17 17 17 17 16 16 16 16 16 16 16 16 16 16 16 16 17 17 17 17 17 17 16 16 16 16 15 15 15 15 15 15 15 15 14 14 14 14 14 14 14 14
17 17 16 16 16 16 16 16 16 16 16 16 16 16 16 16 16 16 16 16 16 16 16 16 15 15 15 15 14 14 14 14 14 14 14 14 14 13 13 13 13 13 13
17 16 16 16 16 16 16 16 16 16 16 15 15 15 15 15 15 15 15 16 15 15 15 15 15 14 14 14 14 13 13 13 13 13 13 13 13 12 12 12 12 12 12
16 16 16 16 16 16 16 15 15 15 15 15 15 15 15 15 15 15 15 15 15 15 14 14 14 13 13 13 13 13 12 12 12 12 12 12 11 11 11 11 11 11 11
16 16 16 16 16 15 15 15 15 15 15 14 14 14 14 14 14 14 14 14 14 14 13 13 13 13 12 12 12 12 11 11 11 11 11 11 10 10 10 10 10 10 10
16 16 15 15 15 15 15 15 15 14 14 14 14 13 13 13 13 13 13 13 13 13 13 12 12 11 11 11 11 10 10 10 10 10 10 10 10 9 9 9 9 9 8
15 15 15 15 14 14 14 14 14 14 13 13 13 13 13 12 12 12 12 12 12 12 11 11 11 11 10 10 10 10 9 9 9 9 9 9 8 8 8 8 8 8 8
15 14 14 14 14 14 14 14 13 13 13 13 12 12 12 12 11 11 11 11 11 11 10 10 10 9 9 9 9 9 8 8 8 8 8 8 7 7 7 7 7 7 7
14 14 13 13 13 13 13 13 13 13 12 12 11 11 11 11 11 10 10 10 10 9 9 9 9 8 8 8 8 8 8 7 7 7 7 7 6 6 6 6 6 6 6
13 13 13 13 12 12 12 12 12 12 11 11 10 10 10 10 10 9 9 9 9 8 8 8 8 7 7 7 7 7 7 6 6 6 6 6 5 5 5 6 5 5 5
Wind_Speed
4 5 4 5 7 7 6 4 3 4 3 2 2 3 3 5 9 12 12 14 13 11 10 10 9 8 8 8 9 9 8 9 8 8 8 7 7 7 7 7 6 6 5
5 4 4 3 3 5 5 4 4 3 2 1 2 2 3 4 8 12 13 12 12 11 10 9 9 8 8 9 9 8 8 8 8 8 8 7 7 7 6 6 6 6 5
8 4 3 3 4 6 5 4 4 4 3 3 3 2 3 4 6 9 13 13 12 11 11 10 9 9 9 9 9 9 9 8 9 8 8 8 8 8 7 6 6 6 6
9 5 3 4 5 6 5 3 2 2 2 2 2 2 3 3 5 6 10 13 14 12 12 12 12 11 10 10 10 9 9 9 10 10 9 9 9 9 8 7 7 7 7
8 5 2 3 5 3 3 4 3 2 2 1 2 3 4 4 3 6 6 10 12 14 14 14 14 13 12 11 11 10 10 10 11 11 11 11 10 10 10 9 9 9 8
8 5 4 4 4 3 3 3 3 2 1 2 3 3 3 4 4 3 5 8 10 12 15 15 14 13 14 14 13 12 12 12 12 12 12 12 12 12 12 11 10 10 10
8 5 2 4 2 2 3 4 3 4 3 2 1 1 2 4 5 5 4 4 7 10 12 16 15 14 13 16 15 14 13 13 13 14 14 13 13 13 13 13 12 12 11
7 7 4 4 4 3 3 2 2 2 3 3 2 1 1 1 2 5 4 5 5 6 8 13 14 14 12 13 15 16 15 14 14 14 14 14 14 14 14 13 13 13 12
7 5 5 3 3 4 4 4 4 4 2 2 2 2 1 1 2 2 4 4 4 4 4 8 12 14 13 12 13 17 17 15 14 14 14 14 14 14 14 14 14 14 14
7 7 6 4 3 3 4 5 5 3 3 3 2 1 2 1 1 1 2 3 6 5 5 4 6 10 12 11 12 15 18 17 15 14 13 13 13 14 14 14 13 13 14
6 7 6 5 5 4 4 3 3 3 2 3 2 2 2 2 3 2 2 2 3 3 4 3 2 6 9 9 10 13 17 16 14 13 12 12 12 12 13 12 12 11 11
5 6 7 6 5 5 4 4 3 4 2 1 2 2 1 1 2 1 2 2 3 3 4 3 3 4 7 7 7 11 16 15 13 11 10 10 10 10 10 9 9 9 8
6 7 7 6 6 5 4 4 4 3 3 3 3 3 2 2 1 1 1 1 2 2 2 2 2 3 5 7 7 11 12 12 10 9 8 7 7 7 7 7 7 7 6
6 7 6 6 6 6 6 5 4 5 4 4 5 3 2 2 3 2 1 1 1 1 2 2 1 3 5 8 9 10 8 9 8 7 6 5 4 4 4 3 3 3 3
5 7 7 6 5 6 5 5 5 5 5 5 4 4 3 2 3 3 2 1 1 2 2 0 1 3 6 8 9 8 7 8 8 7 6 5 3 2 2 1 0 0 0
4 5 6 6 5 5 5 5 4 4 3 3 2 2 2 2 2 2 1 1 1 0 1 1 2 3 5 6 9 9 8 9 8 7 7 5 5 4 4 3 3 3 3
4 4 5 5 5 5 5 5 4 4 4 3 3 3 2 1 1 2 2 1 2 1 1 2 3 4 4 4 5 5 7 8 7 8 8 7 7 7 6 6 6 6 6
4 4 4 4 4 4 4 5 5 4 4 3 2 1 1 1 1 2 3 3 3 3 3 3 3 3 4 3 2 2 5 6 7 9 9 8 8 8 8 7 7 6 6
5 4 5 5 4 4 4 4 4 3 4 4 4 3 3 3 3 3 4 4 4 4 4 4 3 3 4 4 3 3 5 4 5 7 7 7 6 6 6 6 6 6 6
5 4 4 4 4 4 4 5 5 6 6 7 7 8 8 7 6 5 5 5 5 6 5 5 5 4 4 4 4 4 4 4 4 3 4 3 3 4 4 5 4 4 4
5 5 5 4 4 3 4 6 7 8 9 10 11 11 11 14 15 11 8 7 7 6 6 6 6 5 5 5 5 4 4 3 4 5 3 2 1 2 2 3 3 3 2
6 6 5 5 5 4 7 11 10 10 10 11 11 10 11 12 16 18 19 17 13 9 7 6 6 6 6 5 5 5 4 4 3 4 4 4 3 2 1 1 4 5 3
7 6 6 7 8 9 12 14 15 11 11 11 10 9 9 10 11 10 15 17 17 18 14 9 9 7 5 5 5 5 4 3 2 3 2 3 3 3 5 2 3 4 5
7 7 8 9 9 10 14 17 18 13 12 11 10 9 9 9 9 10 11 12 11 11 11 9 8 7 6 4 4 4 3 3 2 3 4 3 4 4 6 5 5 6 6
8 8 8 9 10 10 13 15 15 12 12 12 10 10 10 10 11 12 11 11 10 8 12 13 12 10 10 10 10 6 6 5 4 4 5 4 4 5 4 2 5 5 9
9 10 10 10 11 10 11 13 13 10 11 10 10 10 13 11 11 10 9 8 8 5 4 5 5 5 6 7 8 7 5 5 4 3 5 5 5 5 4 4 6 9 10
Wind_Direction
146 143 145 162 170 162 165 174 165 144 157 150 120 106 86 87 114 119 139 152 150 152 154 155 155 157 158 160 162 159 160 158 157 153 151 151 152 155 154 152 150 153 152
140 144 151 165 165 154 155 156 144 141 163 136 118 134 123 111 113 126 144 153 156 161 163 165 167 168 168 167 167 169 170 168 166 167 168 167 170 171 170 171 170 170 169
144 153 154 172 166 146 145 154 150 150 172 166 162 156 138 142 142 142 150 156 163 171 175 176 178 179 178 179 181 182 182 181 180 182 184 184 183 183 185 187 189 187 188
153 166 173 166 156 159 166 146 179 170 155 162 164 168 144 143 154 165 163 165 168 174 181 186 186 188 190 193 194 194 192 194 195 195 195 196 195 195 198 202 204 204 206
162 181 172 137 169 172 165 177 158 151 151 161 182 177 170 166 168 192 171 169 171 171 176 188 192 195 199 202 204 204 203 204 203 202 204 205 205 206 208 212 215 217 219
172 184 169 163 189 164 149 122 123 133 167 211 232 182 185 172 186 183 187 178 175 180 180 181 188 201 208 209 208 209 211 212 211 209 211 212 213 215 216 219 223 225 228
174 189 191 157 186 159 157 158 160 175 210 213 223 223 211 194 188 183 201 179 183 192 181 173 184 194 201 212 213 213 216 217 216 215 215 217 220 221 222 225 228 232 235
177 186 185 181 174 155 172 186 168 185 224 206 200 199 254 253 228 203 187 198 189 184 181 184 191 189 192 193 208 213 217 217 219 219 220 221 223 226 227 229 233 236 240
185 188 168 194 166 179 180 187 192 199 234 238 204 181 182 211 237 233 201 192 181 183 196 195 190 190 193 187 194 207 213 217 219 221 222 224 225 227 230 233 236 239 242
186 183 179 186 183 194 167 196 194 203 217 252 235 201 199 167 193 207 252 201 188 190 201 204 194 187 190 188 191 193 206 213 217 221 223 222 224 227 230 234 238 243 246
188 186 181 181 187 202 189 197 162 184 218 241 250 229 229 217 233 201 224 217 201 191 192 199 164 173 185 185 184 191 198 206 211 216 219 220 223 226 230 234 240 245 248
193 195 187 180 189 201 185 175 180 198 219 278 297 282 234 233 250 236 210 201 200 204 182 182 180 166 175 169 185 185 188 195 200 205 212 216 221 226 230 233 238 243 246
198 200 195 182 194 195 183 181 184 213 212 217 243 269 284 278 269 264 225 226 199 190 171 174 169 147 156 141 146 157 171 182 188 194 201 210 219 226 229 234 237 239 240
199 189 185 183 195 191 193 183 196 203 203 210 228 236 281 289 300 299 262 213 215 226 192 174 124 105 115 121 135 143 139 156 165 174 182 193 205 217 225 231 239 245 250
195 175 177 182 189 191 197 186 208 216 184 197 219 215 229 261 273 292 306 314 213 225 243 195 81 75 99 107 125 127 118 139 145 145 147 149 144 138 137 149 128 87 334
188 167 175 181 183 183 188 195 212 199 179 195 206 207 214 264 291 280 299 330 338 206 178 115 87 74 71 106 112 114 114 119 126 126 122 119 113 105 99 93 89 79 64
164 170 172 177 179 182 179 183 208 182 177 191 214 187 185 240 338 338 9 7 359 38 119 105 83 66 67 73 97 117 125 114 107 114 115 113 109 102 97 92 87 81 71
159 161 164 164 172 170 171 176 197 179 163 173 173 125 144 181 113 354 13 22 37 50 88 107 94 82 69 68 70 88 101 108 111 112 112 113 112 110 106 102 96 87 77
152 147 141 144 157 155 157 169 170 142 124 106 92 78 65 64 58 47 39 32 33 46 71 95 85 69 65 48 40 47 63 67 96 116 118 120 123 125 124 113 103 90 79
132 131 130 130 137 143 142 140 129 111 95 82 75 71 65 63 60 56 53 41 51 58 68 82 80 68 54 32 35 28 34 20 26 55 70 116 147 143 139 131 118 100 82
123 120 116 113 116 133 137 130 120 113 101 89 78 74 74 75 70 67 67 51 51 59 70 79 80 70 51 35 23 8 22 10 16 25 17 15 137 158 160 171 164 152 125
111 110 109 109 108 109 104 112 115 107 101 98 93 86 81 78 78 75 72 66 62 65 69 72 73 69 53 34 14 19 18 6 4 6 356 340 8 16 354 168 171 182 195
105 100 102 101 95 85 93 98 100 101 98 96 95 92 88 81 79 83 77 70 63 62 68 80 77 67 55 27 8 15 11 353 319 313 337 336 360 7 359 26 193 214 236
107 104 98 95 92 89 94 97 97 95 92 89 88 91 92 83 79 85 86 78 68 58 65 75 81 74 67 35 11 4 340 333 342 4 13 356 359 351 338 318 257 242 262
107 103 98 96 95 90 89 96 101 101 97 91 85 79 84 84 78 85 91 92 88 79 76 87 94 92 76 54 35 25 15 12 10 20 20 4 351 339 323 322 341 279 283
109 102 94 90 93 93 88 95 104 110 106 99 90 80 74 77 75 79 89 92 89 85 88 89 93 82 75 59 50 42 28 14 3 5 16 1 350 346 326 334 345 318 305
Height
1555 1556 1558 1559 1561 1562 1564 1565 1566 1567 1569 1570 1572 1572 1573 1574 1573 1573 1574 1576 1577 1578 1579 1580 1581 1582 1584 1585 1587 1588 1589 1591 1592 1593 1594 1595 1595 1596 1597 1598 1598 1599 1600
1555 1557 1558 1559 1561 1562 1564 1565 1567 1568 1569 1571 1572 1572 1573 1574 1574 1574 1575 1576 1577 1578 1579 1580 1581 1582 1584 1585 1586 1588 1589 1590 1591 1592 1593 1594 1595 1596 1597 1597 1598 1599 1599
1554 1556 1558 1559 1561 1562 1564 1565 1567 1568 1569 1570 1571 1572 1573 1574 1575 1575 1575 1576 1577 1578 1579 1580 1581 1582 1583 1585 1586 1587 1588 1590 1591 1592 1593 1594 1595 1595 1596 1597 1598 1598 1599
1554 1556 1558 1559 1561 1562 1564 1565 1567 1568 1569 1570 1571 1572 1573 1573 1574 1575 1576 1576 1577 1578 1579 1580 1581 1582 1583 1584 1585 1587 1588 1589 1590 1591 1592 1593 1594 1594 1595 1596 1597 1597 1598
1553 1555 1557 1559 1560 1562 1564 1565 1566 1567 1568 1569 1570 1571 1572 1573 1574 1575 1576 1576 1577 1577 1578 1579 1580 1581 1582 1583 1584 1586 1587 1588 1588 1589 1590 1591 1592 1593 1594 1595 1595 1596 1597
1551 1554 1556 1558 1560 1561 1563 1564 1565 1567 1568 1569 1570 1571 1571 1572 1573 1574 1575 1576 1576 1577 1578 1578 1579 1580 1582 1583 1584 1585 1585 1586 1587 1588 1589 1590 1591 1591 1592 1593 1594 1594 1595
1550 1552 1555 1556 1558 1560 1561 1563 1564 1566 1567 1568 1569 1570 1571 1571 1572 1573 1574 1575 1575 1576 1577 1578 1578 1579 1580 1581 1582 1583 1584 1584 1585 1586 1587 1588 1588 1589 1590 1591 1592 1592 1593
1548 1551 1553 1554 1556 1558 1560 1561 1563 1565 1566 1567 1568 1569 1570 1571 1571 1572 1572 1573 1574 1575 1576 1576 1577 1578 1579 1580 1581 1582 1582 1583 1583 1584 1585 1585 1586 1587 1588 1589 1589 1590 1591
1546 1549 1551 1553 1555 1556 1558 1559 1561 1563 1564 1566 1567 1568 1569 1569 1569 1571 1571 1572 1572 1574 1575 1575 1575 1576 1577 1578 1579 1580 1580 1581 1581 1582 1583 1583 1584 1585 1585 1586 1587 1588 1588
1544 1546 1549 1550 1552 1554 1556 1558 1559 1561 1563 1564 1566 1567 1568 1568 1569 1569 1570 1570 1571 1572 1573 1574 1574 1575 1575 1576 1577 1577 1578 1579 1580 1580 1581 1581 1582 1583 1583 1584 1585 1585 1586
1541 1544 1546 1548 1550 1552 1554 1556 1558 1559 1561 1563 1564 1565 1566 1566 1567 1568 1568 1569 1570 1570 1571 1572 1573 1573 1574 1574 1575 1575 1576 1577 1578 1578 1579 1579 1580 1581 1581 1582 1582 1582 1583
1538 1541 1543 1545 1547 1550 1551 1553 1555 1557 1559 1560 1561 1563 1564 1565 1565 1566 1567 1567 1568 1569 1569 1570 1571 1572 1572 1572 1573 1573 1574 1575 1576 1576 1577 1578 1578 1579 1579 1579 1580 1580 1580
1535 1538 1540 1542 1544 1546 1549 1550 1552 1554 1556 1557 1559 1560 1562 1563 1564 1565 1565 1566 1566 1567 1568 1569 1570 1570 1571 1571 1571 1571 1572 1573 1574 1574 1575 1575 1576 1576 1577 1577 1577 1577 1577
1532 1535 1537 1539 1541 1543 1545 1547 1549 1551 1553 1554 1556 1557 1559 1560 1562 1563 1563 1564 1565 1566 1566 1566 1567 1568 1568 1568 1569 1569 1570 1571 1571 1572 1572 1573 1573 1574 1574 1574 1574 1574 1574
1529 1531 1533 1536 1538 1540 1542 1544 1546 1548 1550 1551 1553 1555 1556 1558 1559 1560 1561 1562 1564 1563 1564 1565 1565 1566 1566 1567 1567 1567 1568 1568 1569 1569 1570 1570 1570 1570 1571 1571 1571 1571 1570
1526 1528 1530 1532 1534 1537 1539 1541 1543 1545 1547 1548 1550 1552 1553 1555 1556 1558 1559 1560 1561 1562 1562 1563 1563 1563 1564 1565 1565 1565 1565 1566 1566 1566 1567 1567 1567 1567 1567 1567 1567 1567 1567
1523 1525 1527 1529 1532 1533 1535 1537 1539 1542 1544 1546 1547 1549 1550 1552 1553 1554 1556 1557 1558 1559 1559 1561 1561 1562 1562 1562 1563 1563 1563 1563 1563 1563 1563 1564 1564 1564 1564 1563 1563 1563 1562
1520 1522 1524 1526 1529 1531 1533 1535 1537 1539 1541 1543 1545 1546 1548 1549 1551 1552 1553 1555 1556 1556 1557 1558 1559 1560 1560 1561 1561 1561 1561 1561 1560 1560 1560 1560 1560 1560 1560 1559 1559 1559 1558
1517 1519 1522 1524 1526 1528 1530 1533 1535 1537 1539 1541 1543 1544 1545 1547 1548 1550 1551 1552 1553 1554 1554 1556 1556 1557 1558 1558 1559 1559 1559 1559 1558 1558 1557 1557 1557 1557 1556 1556 1555 1555 1554
1515 1517 1519 1522 1524 1526 1528 1531 1533 1535 1537 1539 1541 1542 1543 1545 1546 1548 1549 1550 1551 1552 1552 1553 1554 1555 1556 1556 1557 1557 1557 1557 1556 1556 1555 1554 1554 1554 1553 1552 1552 1551 1550
1514 1516 1518 1520 1522 1525 1527 1529 1531 1534 1535 1537 1539 1540 1542 1543 1545 1546 1547 1548 1549 1550 1551 1552 1553 1553 1554 1554 1555 1555 1555 1554 1554 1554 1553 1552 1552 1551 1550 1549 1548 1547 1545
1513 1515 1517 1519 1521 1524 1526 1528 1530 1532 1534 1536 1537 1539 1540 1542 1543 1545 1546 1547 1548 1548 1549 1550 1551 1552 1552 1553 1553 1553 1553 1553 1552 1552 1551 1551 1550 1549 1547 1546 1545 1544 1542
1513 1515 1517 1519 1521 1523 1525 1527 1529 1530 1532 1534 1536 1538 1539 1541 1542 1544 1544 1546 1547 1547 1549 1550 1550 1551 1551 1552 1552 1551 1551 1551 1551 1550 1549 1549 1548 1547 1545 1544 1543 1541 1539
1513 1515 1516 1519 1521 1523 1525 1526 1528 1530 1531 1533 1535 1537 1539 1541 1542 1543 1544 1545 1546 1547 1548 1549 1550 1550 1551 1551 1551 1551 1550 1550 1550 1549 1548 1547 1546 1544 1543 1542 1540 1539 1537
1513 1515 1517 1519 1521 1523 1525 1527 1528 1530 1531 1533 1535 1537 1539 1540 1541 1543 1544 1545 1546 1547 1548 1549 1550 1550 1550 1551 1550 1550 1549 1549 1548 1548 1547 1546 1544 1542 1541 1540 1538 1536 1534
1514 1515 1517 1520 1521 1523 1525 1527 1529 1530 1531 1533 1535 1537 1539 1541 1542 1543 1544 1545 1546 1548 1549 1550 1551 1551 1551 1551 1550 1550 1549 1548 1548 1547 1545 1544 1542 1540 1538 1537 1535 1533 1532